TimeAKST,TemperatureF,Dew PointF,Humidity,Sea Level PressureIn,VisibilityMPH,Wind Direction,Wind SpeedMPH,Gust SpeedMPH,PrecipitationIn,Events,Conditions,WindDirDegrees,DateUTC
12:53 AM,46.9,43.0,86,30.44,10.0,SSE,9.2,-,N/A,,Overcast,150,2013-11-22 09:53:00
1:53 AM,46.9,43.0,86,30.44,10.0,SSE,13.8,20.7,N/A,,Overcast,150,2013-11-22 10:53:00
2:42 AM,46.9,43.0,86,30.44,10.0,SSE,15.0,23.0,N/A,,Overcast,150,2013-11-22 11:42:00
2:53 AM,46.9,43.0,86,30.44,10.0,SSE,12.7,19.6,N/A,,Overcast,150,2013-11-22 11:53:00
3:17 AM,46.0,43.0,89,30.43,10.0,SE,12.7,20.7,N/A,,Overcast,140,2013-11-22 12:17:00
3:53 AM,46.9,42.1,83,30.43,10.0,SSE,13.8,23.0,N/A,,Overcast,150,2013-11-22 12:53:00
4:20 AM,46.0,42.1,86,30.43,10.0,SE,17.3,26.5,N/A,,Overcast,140,2013-11-22 13:20:00
4:53 AM,45.0,43.0,93,30.43,10.0,SE,16.1,24.2,N/A,,Overcast,140,2013-11-22 13:53:00
5:07 AM,45.0,43.0,93,30.42,10.0,SE,16.1,27.6,N/A,,Overcast,140,2013-11-22 14:07:00
5:28 AM,45.0,42.1,90,30.42,10.0,SE,16.1,27.6,0.00,Rain,Light Rain,140,2013-11-22 14:28:00
5:53 AM,45.0,41.0,86,30.42,10.0,SE,17.3,27.6,0.00,,Overcast,140,2013-11-22 14:53:00
6:22 AM,45.0,41.0,86,30.41,10.0,SE,20.7,26.5,N/A,,Overcast,140,2013-11-22 15:22:00
6:53 AM,45.0,39.9,82,30.42,10.0,SE,16.1,25.3,N/A,,Overcast,140,2013-11-22 15:53:00
7:53 AM,44.1,39.0,82,30.41,10.0,SE,18.4,29.9,0.00,Rain,Light Rain,140,2013-11-22 16:53:00
8:53 AM,43.0,39.9,89,30.41,6.0,SE,16.1,26.5,0.02,Rain,Light Rain,140,2013-11-22 17:53:00
9:53 AM,44.1,39.0,82,30.39,10.0,SE,19.6,26.5,0.00,,Overcast,140,2013-11-22 18:53:00
10:53 AM,44.1,39.0,82,30.36,10.0,ESE,17.3,29.9,N/A,,Overcast,120,2013-11-22 19:53:00
11:53 AM,43.0,39.9,89,30.35,5.0,SE,19.6,31.1,0.02,Rain,Light Rain,140,2013-11-22 20:53:00
12:53 PM,43.0,39.9,89,30.32,5.0,SE,19.6,31.1,0.07,Rain,Light Rain,130,2013-11-22 21:53:00
1:53 PM,42.1,39.0,89,30.30,4.0,SE,20.7,35.7,0.09,Rain,Rain,130,2013-11-22 22:53:00
2:53 PM,41.0,37.9,89,30.29,7.0,SE,23.0,33.4,0.08,Rain,Light Rain,130,2013-11-22 23:53:00
3:53 PM,39.9,37.9,93,30.26,7.0,ESE,19.6,31.1,0.04,Rain,Light Rain,120,2013-11-23 00:53:00
4:24 PM,39.9,37.9,93,30.24,8.0,SE,20.7,32.2,0.03,Rain,Light Rain,130,2013-11-23 01:24:00
4:53 PM,39.9,37.9,93,30.24,7.0,SE,25.3,35.7,0.08,Rain,Rain,130,2013-11-23 01:53:00
5:44 PM,39.9,37.9,93,30.22,6.0,SE,19.6,32.2,0.11,Rain,Rain,130,2013-11-23 02:44:00
5:53 PM,41.0,37.9,89,30.23,5.0,SE,21.9,29.9,0.13,Rain,Rain,130,2013-11-23 02:53:00
6:53 PM,42.1,39.0,89,30.19,5.0,SE,25.3,36.8,0.12,Rain,Rain,140,2013-11-23 03:53:00
7:53 PM,41.0,37.9,89,30.17,5.0,ESE,23.0,31.1,0.14,Rain,Rain,120,2013-11-23 04:53:00
8:53 PM,41.0,37.9,89,30.15,8.0,ESE,21.9,32.2,0.08,Rain,Light Rain,120,2013-11-23 05:53:00
9:41 PM,41.0,37.0,86,30.11,10.0,ESE,20.7,32.2,0.06,Rain,Light Rain,120,2013-11-23 06:41:00
9:53 PM,41.0,37.0,86,30.11,10.0,ESE,20.7,35.7,0.06,Rain,Light Rain,120,2013-11-23 06:53:00
10:53 PM,42.1,37.9,85,30.08,6.0,SE,24.2,35.7,0.05,Rain,Light Rain,130,2013-11-23 07:53:00
11:15 PM,39.9,37.9,93,30.06,6.0,ESE,21.9,34.5,0.02,Rain,Light Rain,120,2013-11-23 08:15:00
11:25 PM,39.9,37.9,93,30.06,6.0,ESE,18.4,34.5,0.04,Rain,Rain,120,2013-11-23 08:25:00
11:53 PM,41.0,37.9,89,30.06,7.0,ESE,23.0,31.1,0.06,Rain,Light Rain,120,2013-11-23 08:53:00